Location: San Antonio de Areco
(34.2500°S, 59.4670°W)
Time: 09:01:05
(UTC-03:00)

ISS - Visible Passes

Search period start: 20 April 2014 00:00
Search period end: 30 April 2014 00:00
Orbit: 414 x 419 km, 51.6° (Epoch: 20 April)

Date Brightness Start Highest point End Pass type
(mag) Time Alt. Az. Time Alt. Az. Time Alt. Az.
25 Apr -0.5 06:56:07 10° S 06:57:28 12° SSE 06:58:49 10° SE visible
27 Apr -1.3 06:54:07 10° SSW 06:56:59 25° SE 06:59:50 10° E visible
28 Apr -0.7 06:05:59 11° S 06:07:58 16° SSE 06:10:10 10° ESE visible
29 Apr -0.1 05:19:20 11° SE 05:19:20 11° SE 05:19:49 10° SE visible
29 Apr -3.1 06:52:39 10° SW 06:56:02 73° SE 06:59:23 10° NE visible
